Location: Moonridge Observatory
(39.2268°N, 77.7914°W)
Time: 10:29:02
(UTC-04:00)

Amateur Radio Satellites - All Passes

Search period start: 02 October 2014 09:59
Search period end: 03 October 2014 09:59
Location: Moonridge Observatory, 39.2268°N, 77.7914°W

Satellite Date Start Highest point End Downlink Frequencies (MHz)
Time Altitude Azimuth
UKube-1 02 Oct 10:08:04 10:11:47 27° 96° (E) 10:15:28 145.840 MHz, 145.915 MHz
Sapphire 02 Oct 10:12:04 10:17:25 62° 301° (WNW) 10:22:48 437.095 MHz 1200 baud AX-25 AFSK
HO-68 02 Oct 10:34:47 10:42:00 84° 287° (WNW) 10:49:12 435.675 MHz FM
PCSat 02 Oct 10:38:06 10:43:03 36° 306° (NW) 10:48:02 145.825 MHz
ZACube-1 02 Oct 10:50:23 10:54:14 27° 95° (E) 10:57:59 437.345 MHz
Oscar 11 02 Oct 11:12:58 11:17:16 67° 285° (WNW) 11:21:32 145.825 FM, Beacon 2401.500 USB
RS-15 02 Oct 11:38:42 11:49:53 78° 57° (ENE) 12:01:33 29.354 - 29.394 USB, Beacon 29.352 USB
FUNcube-1 02 Oct 11:40:38 11:45:12 83° 284° (WNW) 11:49:37 145.950 - 145.970 MHz USB
UKube-1 02 Oct 11:44:15 11:47:52 26° 292° (WNW) 11:51:28 145.840 MHz, 145.915 MHz
Sapphire 02 Oct 12:00:33 12:01:58 11° 321° (NW) 12:03:24 437.095 MHz 1200 baud AX-25 AFSK
HO-68 02 Oct 12:24:36 12:28:39 16° 306° (NW) 12:32:41 435.675 MHz FM
ZACube-1 02 Oct 12:26:44 12:30:32 27° 291° (WNW) 12:34:16 437.345 MHz
JAS-1B 02 Oct 12:45:53 12:50:20 18° 62° (ENE) 12:54:23 435.800 - 435.900 CW/SSB
Oscar 19 02 Oct 13:03:36 13:07:56 28° 67° (ENE) 13:12:17 437.125 CW, 437.150 USB
ITAMSAT 1 02 Oct 13:19:52 13:23:05 17° 62° (ENE) 13:26:19 435.822 SSB
Uribyol 2 02 Oct 13:20:08 13:23:34 18° 63° (ENE) 13:27:00 436.500 FM
AO-Echo 02 Oct 13:43:14 13:47:16 29° 68° (ENE) 13:51:20 ?
Oscar 16 02 Oct 13:43:56 13:49:05 69° 74° (ENE) 13:54:15 437.025 USB, Beacon 2401.1428
RS-15 02 Oct 13:52:24 14:01:09 28° 257° (WSW) 14:10:13 29.354 - 29.394 USB, Beacon 29.352 USB
AO-27 02 Oct 13:56:53 14:01:37 37° 69° (ENE) 14:06:22 436.795 MHz FM
Saudisat 1A 02 Oct 14:08:48 14:13:11 78° 120° (ESE) 14:17:36 436.775 MHz
Gurwin Techsat 1B 02 Oct 14:29:41 14:34:30 37° 69° (ENE) 14:39:21 435.225 FM
JAS-1B 02 Oct 14:32:46 14:40:29 78° 256° (WSW) 14:46:57 435.800 - 435.900 CW/SSB
Oscar 19 02 Oct 14:42:25 14:47:07 34° 263° (W) 14:51:50 437.125 CW, 437.150 USB
AO-7 02 Oct 14:50:19 14:56:07 22° 53° (NE) 15:01:55 29.400 - 29.500 MHz
ITAMSAT 1 02 Oct 14:56:58 15:02:04 60° 259° (WSW) 15:07:13 435.822 SSB
TMSAT-1 02 Oct 14:57:05 15:02:09 48° 71° (ENE) 15:07:14 436.925 FM
Uribyol 2 02 Oct 14:57:30 15:02:34 56° 259° (W) 15:07:41 436.500 FM
MaSat-1 02 Oct 15:05:20 15:08:30 42° 61° (ENE) 15:11:15 437.345 MHz
AO-Echo 02 Oct 15:22:06 15:26:01 26° 265° (W) 15:29:58 ?
Oscar 16 02 Oct 15:26:26 15:28:53 13° 270° (W) 15:31:21 437.025 USB, Beacon 2401.1428
AO-27 02 Oct 15:36:59 15:41:11 25° 265° (W) 15:45:25 436.795 MHz FM
Saudisat 1A 02 Oct 15:50:59 15:53:18 14° 318° (NW) 15:55:38 436.775 MHz
Gurwin Techsat 1B 02 Oct 16:10:07 16:14:31 26° 265° (W) 16:18:56 435.225 FM
KITSAT 1 02 Oct 16:23:11 16:30:23 37° 108° (ESE) 16:37:35 435.175 FM
JAS-1B 02 Oct 16:30:11 16:31:38 11° 269° (W) 16:33:03 435.800 - 435.900 CW/SSB
TMSAT-1 02 Oct 16:38:31 16:42:18 20° 267° (W) 16:46:06 436.925 FM
AO-7 02 Oct 16:39:35 16:47:54 86° 252° (WSW) 16:56:14 29.400 - 29.500 MHz
Uosat F 02 Oct 16:43:24 16:48:23 83° 75° (ENE) 16:53:25 435.120 FM
OPAL 02 Oct 17:00:01 17:02:34 14° 93° (E) 17:05:06 ?
Oscar 10/S400 02 Oct 17:03:05 17:21:00 53° 159° (SSE) 18:03:02 145.825 - 145.975 CW/USB, Beacon 145.810 USB
JAS-2 02 Oct 17:12:19 17:16:34 26° 65° (ENE) 17:21:01 435.800 - 435.900 CW/SSB, 435.910 FM
Sapphire 02 Oct 17:19:22 17:22:14 14° 42° (NE) 17:25:06 437.095 MHz 1200 baud AX-25 AFSK
PCSat 02 Oct 17:43:54 17:48:08 23° 49° (NE) 17:52:21 145.825 MHz
Hamsat 02 Oct 18:07:13 18:11:31 68° 75° (ENE) 18:15:48 145.90 MHz
KITSAT 1 02 Oct 18:17:45 18:25:32 50° 307° (NW) 18:33:22 435.175 FM
OPAL 02 Oct 18:36:50 18:41:53 64° 289° (WNW) 18:46:49 ?
AO-7 02 Oct 18:37:09 18:41:42 16° 270° (W) 18:46:17 29.400 - 29.500 MHz
JAS-2 02 Oct 18:56:51 19:01:31 34° 264° (W) 19:06:26 435.800 - 435.900 CW/SSB, 435.910 FM
Sapphire 02 Oct 19:01:02 19:06:30 84° 62° (ENE) 19:11:56 437.095 MHz 1200 baud AX-25 AFSK
SO-67 02 Oct 19:11:13 19:14:28 41° 74° (ENE) 19:17:44 435.3500 MHz FM
PANSAT 02 Oct 19:11:57 19:13:09 11° 166° (SSE) 19:14:21 not established
HO-68 02 Oct 19:19:41 19:22:20 12° 51° (NE) 19:24:59 435.675 MHz FM
SO-50 02 Oct 19:25:33 19:30:01 89° 119° (ESE) 19:34:38 436.795 FM
PCSat 02 Oct 19:26:36 19:31:53 55° 247° (WSW) 19:37:08 145.825 MHz
STRAND 1 02 Oct 19:41:01 19:45:59 47° 100° (E) 19:50:56 ?
AO-40 02 Oct 19:43:07 01:33:34 44° 183° (S) 08:19:04 Beacon 2401.320
UOSAT-12 02 Oct 19:46:57 19:48:49 12° 107° (ESE) 19:50:42 437.025 FM, 437.400 FM
KITSAT 1 02 Oct 20:19:01 20:23:10 15° 332° (NNW) 20:27:19 435.175 FM
Sapphire 02 Oct 20:47:16 20:49:08 12° 258° (WSW) 20:51:01 437.095 MHz 1200 baud AX-25 AFSK
PANSAT 02 Oct 20:50:08 20:52:37 17° 178° (S) 20:55:06 not established
HO-68 02 Oct 21:01:39 21:08:42 67° 70° (ENE) 21:15:48 435.675 MHz FM
UKube-1 02 Oct 21:03:01 21:06:17 21° 67° (ENE) 21:09:34 145.840 MHz, 145.915 MHz
SO-50 02 Oct 21:09:03 21:11:16 13° 320° (NW) 21:13:31 436.795 FM
STRAND 1 02 Oct 21:21:04 21:24:49 21° 296° (WNW) 21:28:34 ?
UOSAT-12 02 Oct 21:23:44 21:28:20 70° 303° (WNW) 21:33:02 437.025 FM, 437.400 FM
ISS 02 Oct 21:27:30 21:30:38 39° 136° (SE) 21:33:46 145.800 FM
ZACube-1 02 Oct 21:46:08 21:49:32 21° 67° (ENE) 21:52:57 437.345 MHz
Oscar 11 02 Oct 22:06:32 22:10:54 82° 76° (ENE) 22:15:17 145.825 FM, Beacon 2401.500 USB
PANSAT 02 Oct 22:30:17 22:32:07 13° 191° (SSW) 22:33:56 not established
FUNcube-1 02 Oct 22:35:25 22:39:55 69° 75° (ENE) 22:44:31 145.950 - 145.970 MHz USB
Saudisat 1A 02 Oct 22:36:34 22:40:49 45° 54° (NE) 22:45:03 436.775 MHz
UKube-1 02 Oct 22:38:23 22:42:16 32° 262° (W) 22:46:11 145.840 MHz, 145.915 MHz
HO-68 02 Oct 22:51:42 22:56:54 22° 267° (W) 23:02:09 435.675 MHz FM
ISS 02 Oct 23:04:33 23:07:24 26° 333° (NNW) 23:10:15 145.800 FM
UOSAT-12 02 Oct 23:07:53 23:09:22 11° 323° (NW) 23:10:52 437.025 FM, 437.400 FM
ZACube-1 02 Oct 23:21:26 23:25:39 37° 263° (W) 23:29:57 437.345 MHz
FUNcube-1 03 Oct 00:15:42 00:16:46 11° 271° (W) 00:17:49 145.950 - 145.970 MHz USB
Saudisat 1A 03 Oct 00:17:04 00:20:03 18° 250° (WSW) 00:23:00 436.775 MHz
KITSAT 1 03 Oct 00:17:23 00:22:47 19° 34° (NE) 00:28:09 435.175 FM
ISS 03 Oct 00:44:15 00:45:00 11° 352° (N) 00:45:46 145.800 FM
AO-Echo 03 Oct 01:53:27 01:54:37 11° 90° (E) 01:55:47 ?
Oscar 16 03 Oct 01:57:23 02:01:40 26° 95° (E) 02:05:54 437.025 USB, Beacon 2401.1428
RS-15 03 Oct 02:00:41 02:11:20 56° 112° (ESE) 02:21:50 29.354 - 29.394 USB, Beacon 29.352 USB
KITSAT 1 03 Oct 02:11:43 02:19:47 69° 58° (ENE) 02:27:48 435.175 FM
AO-27 03 Oct 02:12:23 02:15:09 14° 91° (E) 02:17:55 436.795 MHz FM
JAS-1B 03 Oct 02:18:44 02:23:30 26° 97° (E) 02:28:39 435.800 - 435.900 CW/SSB
SO-50 03 Oct 02:20:28 02:21:17 10° 36° (NE) 02:22:07 436.795 FM
ISS 03 Oct 02:21:26 02:22:54 12° 13° (NNE) 02:24:23 145.800 FM
Gurwin Techsat 1B 03 Oct 02:48:06 02:51:14 16° 91° (E) 02:54:22 435.225 FM
Oscar 19 03 Oct 02:54:32 02:59:42 89° 284° (WNW) 03:04:49 437.125 CW, 437.150 USB
ITAMSAT 1 03 Oct 03:10:53 03:16:01 53° 100° (E) 03:21:06 435.822 SSB
Uribyol 2 03 Oct 03:11:13 03:16:23 58° 101° (E) 03:21:30 436.500 FM
TMSAT-1 03 Oct 03:14:45 03:18:43 21° 93° (E) 03:22:39 436.925 FM
AO-Echo 03 Oct 03:28:48 03:33:53 81° 284° (WNW) 03:39:05 ?
Oscar 16 03 Oct 03:36:23 03:41:03 35° 291° (WNW) 03:45:40 437.025 USB, Beacon 2401.1428
AO-27 03 Oct 03:49:54 03:55:05 65° 287° (WNW) 04:00:15 436.795 MHz FM
ISS 03 Oct 03:57:09 04:00:19 40° 32° (NNE) 04:03:28 145.800 FM
SO-50 03 Oct 03:58:03 04:02:50 60° 56° (NE) 04:07:39 436.795 FM
KITSAT 1 03 Oct 04:08:17 04:14:27 25° 256° (WSW) 04:20:37 435.175 FM
JAS-1B 03 Oct 04:09:01 04:14:18 40° 291° (WNW) 04:20:02 435.800 - 435.900 CW/SSB
OPAL 03 Oct 04:13:00 04:17:11 25° 64° (ENE) 04:21:21 ?
RS-15 03 Oct 04:13:38 04:23:56 44° 315° (NW) 04:34:16 29.354 - 29.394 USB, Beacon 29.352 USB
UOSAT-12 03 Oct 04:16:19 04:18:08 12° 38° (NE) 04:19:57 437.025 FM, 437.400 FM
Gurwin Techsat 1B 03 Oct 04:26:21 04:31:35 61° 287° (WNW) 04:36:48 435.225 FM
Oscar 19 03 Oct 04:36:56 04:38:14 11° 301° (WNW) 04:39:31 437.125 CW, 437.150 USB
AO-7 03 Oct 04:42:52 04:50:14 34° 98° (E) 04:57:34 29.400 - 29.500 MHz
MaSat-1 03 Oct 04:46:37 04:50:41 27° 107° (ESE) 04:54:36 437.345 MHz
ITAMSAT 1 03 Oct 04:51:29 04:55:04 19° 297° (WNW) 04:58:38 435.822 SSB
Uribyol 2 03 Oct 04:51:57 04:55:22 18° 297° (WNW) 04:58:46 436.500 FM
Uosat F 03 Oct 04:52:41 04:56:59 28° 96° (E) 05:01:15 435.120 FM
TMSAT-1 03 Oct 04:53:47 04:58:50 46° 289° (WNW) 05:03:51 436.925 FM
ISS 03 Oct 05:34:15 05:36:49 21° 228° (SW) 05:39:23 145.800 FM
SO-50 03 Oct 05:40:02 05:42:55 16° 251° (WSW) 05:45:48 436.795 FM
OPAL 03 Oct 05:50:55 05:55:48 41° 259° (W) 06:00:43 ?
UOSAT-12 03 Oct 05:54:23 05:59:07 74° 57° (ENE) 06:03:46 437.025 FM, 437.400 FM
Hamsat 03 Oct 05:55:59 05:57:47 13° 91° (E) 05:59:35 145.90 MHz
JAS-2 03 Oct 06:04:33 06:10:45 34° 96° (E) 06:17:26 435.800 - 435.900 CW/SSB, 435.910 FM
MaSat-1 03 Oct 06:22:40 06:26:59 33° 301° (WNW) 06:31:07 437.345 MHz
Uosat F 03 Oct 06:31:17 06:35:44 32° 292° (WNW) 06:40:11 435.120 FM
RS-15 03 Oct 06:33:15 06:40:18 19° 347° (NNW) 06:47:26 29.354 - 29.394 USB, Beacon 29.352 USB
AO-7 03 Oct 06:35:17 06:43:12 52° 295° (WNW) 06:51:07 29.400 - 29.500 MHz
STRAND 1 03 Oct 06:55:52 07:00:52 61° 73° (ENE) 07:05:55 ?
Hamsat 03 Oct 07:29:58 07:34:01 49° 286° (WNW) 07:38:02 145.90 MHz
UOSAT-12 03 Oct 07:37:04 07:38:36 11° 253° (WSW) 07:40:07 437.025 FM, 437.400 FM
JAS-2 03 Oct 07:49:22 07:55:47 46° 290° (WNW) 08:02:51 435.800 - 435.900 CW/SSB, 435.910 FM
Sapphire 03 Oct 08:02:31 08:04:19 12° 102° (ESE) 08:06:08 437.095 MHz 1200 baud AX-25 AFSK
SO-67 03 Oct 08:08:22 08:11:47 59° 100° (E) 08:15:11 435.3500 MHz FM
PCSat 03 Oct 08:25:14 08:29:20 22° 106° (ESE) 08:33:27 145.825 MHz
AO-7 03 Oct 08:32:24 08:34:03 11° 316° (NW) 08:35:42 29.400 - 29.500 MHz
HO-68 03 Oct 08:34:19 08:36:23 11° 88° (E) 08:38:27 435.675 MHz FM
STRAND 1 03 Oct 08:37:42 08:40:27 15° 269° (W) 08:43:14 ?
RS-15 03 Oct 08:50:20 08:58:31 23° 24° (NNE) 09:06:51 29.354 - 29.394 USB, Beacon 29.352 USB
Sapphire 03 Oct 09:41:32 09:46:57 84° 298° (WNW) 09:52:24 437.095 MHz 1200 baud AX-25 AFSK
